Regional Weather Roundup
Issued by NWS Charleston, SC

Current Version | Previous Version | Graphics & Text | Print | Product List | Glossary On
Versions: 1 2 3 4 5 6 7 8 9 10 11 12 13 14 15 16 17 18 19 20 21 22 23 24 25 26 27 28 29 30 31 32 33 34 35 36 37 38 39 40 41 42 43 44 45 46 47 48 49 50
000
ASUS42 KCHS 311128
RWRCHS

REGIONAL WEATHER ROUNDUP
NATIONAL WEATHER SERVICE CHARLESTON SC
700 AM EDT WED AUG 31 2016

NOTE: "FAIR" INDICATES FEW OR NO CLOUDS BELOW 12,000 FEET WITH NO
SIGNIFICANT WEATHER AND/OR OBSTRUCTIONS TO VISIBILITY.

NOT ALL STATIONS ARE QUALITY CONTROLLED. USE DATA WITH CAUTION...
ESPECIALLY DEWPOINT OBSERVATIONS.

SCZ027-030-031-034>040-042>050-311200-
...SOUTHEAST SOUTH CAROLINA...

CITY           SKY/WX    TMP DP  RH WIND       PRES   REMARKS
N CHARLESTON   MOCLDY    75  72  90 NE6       29.97S
WATERFRONT PRK   N/A     77  75  93 NE9       29.93F
MOUNT PLEASANT PTSUNNY   73  73 100 CALM      29.98R
JOHNS ISLAND   PTSUNNY   75  73  94 CALM      29.98R
PINOPOLIS        N/A     75  73  94 VRB3      29.90S
MONCKS CORNER  PTSUNNY   72  72 100 CALM      29.97S
SUMMERVILLE    PTSUNNY   72  72 100 CALM      29.98S
BEAUFORT MCAS  HVY RAIN  75  73  93 E8G21     29.96R VSB 1/2
BEAUFORT ARPT  PTSUNNY   73  73 100 E8        29.95S
HILTON HEAD IS LGT RAIN  75  72  88 NE9       29.95R
WALTERBORO     CLOUDY    75  75 100 NE5       29.97S
ALLENDALE      FAIR      73  72  94 CALM      29.96S

...SOUTHERN MIDLANDS AND PEE DEE...

CITY           SKY/WX    TMP DP  RH WIND       PRES   REMARKS
GEORGETOWN     LGT RAIN  73  72  94 CALM      30.00R
KINGSTREE      FAIR      72  66  83 CALM      29.99R
ORANGEBURG     CLOUDY    73  71  93 N6        29.98R
BARNWELL       NOT AVBL
AIKEN          FAIR      68  68 100 NE3       30.02F FOG
MANNING        PTSUNNY   72  68  88 N3        29.99S
COLUMBIA       MOCLDY    72  69  90 CALM      29.98S
SUMTER         PTCLDY    71  68  90 NE5       29.97R
FLORENCE       CLOUDY    75  66  73 CALM      29.99S
MYRTLE BEACH   MOCLDY    75  66  73 N3        30.00R
N MYRTLE BEACH CLOUDY    74  73  97 CALM      29.98R

$$

GAZ063-065-086>088-099>101-113>116-118-119-134>141-150-311200-
...SOUTHEAST GEORGIA...

CITY           SKY/WX    TMP DP  RH WIND       PRES   REMARKS
SAVANNAH ARPT  LGT RAIN  76  73  91 NE9       29.93S
HUNTER AAF     MOCLDY    77  77 100 NE5       29.89F
FORT STEWART   CLOUDY    75  73  92 NE6       29.89S
STATESBORO     PTCLDY    75  74  96 CALM      29.95R
SYLVANIA       NOT AVBL
CLAXTON        PTSUNNY   75  75  99 N3        29.94R FOG

...CSRA...CENTRAL AND FAR SOUTHEAST GEORGIA...

CITY           SKY/WX    TMP DP  RH WIND       PRES   REMARKS
THOMSON        MOCLDY    70  70 100 CALM      30.04R
AUGUSTA-BUSH   CLEAR     72  70  93 CALM      29.97R
AUGUSTA-DANIEL CLEAR     74  70  87 NE3       29.99S
SWAINSBORO     FAIR      72  72 100 NE3       29.97R
VIDALIA        CLOUDY    75  75 100 NE8       29.94S
EASTMAN        FAIR      73  73 100 N3        29.97S
HAZLEHURST     CLOUDY    75  75 100 CALM      29.92S
ALMA           CLOUDY    75  72  90 N5        29.90F
WAYCROSS         N/A     76  76 100 N3        29.90S
JESUP          PTSUNNY   77  77 100 NE5       29.90S
BAXLEY         CLOUDY    75  75 100 NE5       29.91S
BRUNSWICK      CLOUDY    77  77 100 W3        29.89R
SAINT SIMONS   LGT RAIN  77  76  96 W7        29.87R FOG

$$

SCZ027-028-034-036>038-045-046-048>050-GAZ119-141-311200-
...LAKE AND SUPPLEMENTAL COASTAL OBSERVATIONS...

STATION/POSITION TIME  TEMP    WIND        PRES    WAVE   SWELL
                       AIR SEA DIR/SP/G            HT/PER HT/PER/DIR
                 (UTC) (F)     (DEG/KT/KT) (MB)    (FT/S) (FT/S/D)
WINYAH BAY       1000   77     290/  2     1014.0S
LAKE MURRAY      1000   75      CALM  /  2 1014.9S
ACE BASIN NERRS  1000   75     360/  1     1014.0S
FORT PULASKI     1100   80 84  100/ 11/ 14 1013.5F
SAPELO ISLAND    1100   78      80/  5     1012.0S

$$

ANZ835-935-AMZ111-154-330-350-352-354-370-450-454-472-311200-
...C-MAN AND BUOY OBSERVATIONS...

STATION/POSITION TIME  TEMP    WIND        PRES    WAVE   SWELL
                       AIR SEA DIR/SP/G            HT/PER HT/PER/DIR
                 (UTC) (F)     (DEG/KT/KT) (MB)    (FT/S) (FT/S/D)
BUOY 41004       1050   80 84  170/ 14/ 16 1013.7F   4/ 9   3/110/ 9
BUOY 41008       1050   79 85  100/ 14/ 16 1011.7S   6/ 6   3/ 90/11
FOLLY BEACH CMAN 1100   79     100/  9/ 11 1015.2R
CAPERS NEARSHORE 1108   78 83   40/ 12/ 16 1014.7R
FRIPP NEARSHORE  1108   79 85  120/ 14/ 19 1013.3R


STATION/POSITION TIME  TEMP    WIND        PRES    WAVE   SWELL
                       AIR SEA DIR/SP/G            HT/PER HT/PER/DIR
                 (UTC) (F)     (DEG/KT/KT) (MB)    (FT/S) (FT/S/D)
5E ST. MARYS GA  1101      84                N/A     5/ 6   2/ 90/11
FRYING PAN BUOY  1100   82 84   CALM  /  2 1015.0R
BUOY 41025       1050   81 85  340/ 12/ 14 1014.2R   5/11   5/100/11
CAPE LOOKOUT NC  1100   77     340/  8/  9 1014.9S
BUOY 41002       1050   82 83  240/  8/  8 1015.8R   4/11   3/ 60/11
BUOY 41010       NOT AVBL
ST AUGUSTINE FL  1100   76 82  200/  4/  6 1013.3R


$$




USA.gov is the U.S. government's official web portal to all federal, state and local government web resources and services.